Location: Izdebno
(52.6670°N, 16.2170°E)
Time: 10:53:59
(UTC+02:00)

deb Explorer IX - All Passes

Search period start: 29 May 2024 00:00
Search period end: 08 June 2024 00:00
Orbit: 512 x 889 km, 38.7° (Epoch: 28 May)

Date Brightness Start Highest point End Pass type
(mag) Time Alt. Az. Time Alt. Az. Time Alt. Az.
29 May - 19:30:48 10° S 19:33:18 13° SSE 19:35:42 10° SE daylight
29 May - 21:13:01 10° SW 21:16:25 17° S 21:19:37 10° SE daylight
29 May - 22:57:24 10° SW 22:59:25 12° SSW 23:01:21 10° S visible
30 May - 18:31:38 10° S 18:32:53 11° SSE 18:34:09 10° SE daylight
30 May - 20:12:26 10° SW 20:15:59 17° S 20:19:19 10° SE daylight
30 May - 21:56:02 10° SW 21:59:04 15° SSW 22:01:57 10° SSE visible
31 May - 19:12:02 10° SSW 19:15:28 16° SSE 19:18:45 10° SE daylight
31 May - 20:55:01 10° SW 20:58:38 18° S 21:02:01 10° SE daylight
31 May - 22:40:29 10° SW 22:41:34 11° SSW 22:42:38 10° SSW visible
01 Jun - 18:11:58 10° SSW 18:14:56 14° SSE 18:17:50 10° SE daylight
01 Jun - 19:54:12 10° SW 19:58:06 19° S 20:01:47 10° SE daylight
01 Jun - 21:38:21 10° SW 21:41:10 14° SSW 21:43:52 10° SSE daylight
02 Jun - 17:12:33 10° S 17:14:25 11° SSE 17:16:14 10° SE daylight
02 Jun - 18:53:32 10° SW 18:57:30 19° S 19:01:17 10° SE daylight
02 Jun - 20:37:03 10° SW 20:40:40 17° SSW 20:44:05 10° SSE daylight
03 Jun - 17:53:05 10° SSW 17:56:52 17° SSE 18:00:30 10° SE daylight
03 Jun - 19:36:00 10° SW 19:40:04 19° S 19:43:55 10° SE daylight
03 Jun - 21:20:49 10° SW 21:23:04 12° SSW 21:25:15 10° S daylight
04 Jun - 16:52:59 10° SSW 16:56:12 15° SSE 16:59:22 10° SE daylight
04 Jun - 18:35:07 10° SW 18:39:22 20° S 18:43:27 10° SE daylight
04 Jun - 20:19:05 10° SW 20:22:31 16° SSW 20:25:48 10° SSE daylight
05 Jun - 15:53:33 10° S 15:55:33 12° SSE 15:57:33 10° SE daylight
05 Jun - 17:34:25 10° SW 17:38:37 20° S 17:42:43 10° SE daylight
05 Jun - 19:17:47 10° SW 19:21:51 19° S 19:25:43 10° SSE daylight
05 Jun - 21:04:08 10° SW 21:04:46 10° SSW 21:05:24 10° SSW daylight
06 Jun - 16:33:57 10° SSW 16:37:52 18° SSE 16:41:43 10° SE daylight
06 Jun - 18:16:43 10° SW 18:21:05 21° S 18:25:18 10° SE daylight
06 Jun - 20:01:12 10° SW 20:04:10 14° SSW 20:07:02 10° S daylight
07 Jun - 15:33:51 10° S 15:37:05 15° SSE 15:40:19 10° SE daylight
07 Jun - 17:15:49 10° SW 17:20:15 21° S 17:24:35 10° SE daylight
07 Jun - 18:59:36 10° SW 19:03:27 18° SSW 19:07:10 10° SSE daylight
